Theta_e
347 349 350 352 352 352 352 352 346 344 343 343 343 344 342 343 349 349 348 350 346 345 344 342 342 344 345 346 345 344 339 338 343 344 339 340 342 344 349 350 346 338 349
346 351 350 349 352 352 352 352 351 344 343 343 343 343 343 346 349 349 348 350 350 346 345 340 339 339 339 342 343 344 344 342 342 343 341 344 343 346 351 349 347 334 340
348 349 350 349 352 352 352 351 351 351 351 346 343 344 347 348 349 349 348 348 351 352 350 345 342 341 341 340 341 342 341 340 339 339 339 346 345 345 348 349 350 349 343
347 348 350 349 351 352 351 351 351 351 351 352 351 351 350 351 351 350 350 346 351 350 348 350 347 345 350 345 342 342 342 340 343 341 340 340 342 344 345 345 341 346 349
347 349 349 349 351 352 351 350 351 351 351 351 352 352 352 352 352 352 352 351 351 347 342 348 350 351 345 344 344 342 340 343 342 338 339 338 340 344 346 344 337 342 348
347 349 350 351 353 352 346 351 350 351 352 352 352 352 352 353 353 352 351 352 351 349 351 351 351 348 344 341 344 343 343 342 342 339 339 339 340 342 341 350 348 348 348
347 347 350 351 350 351 348 350 351 347 351 352 352 352 352 353 353 352 351 349 349 350 348 349 349 349 348 344 342 342 342 341 339 339 342 339 340 342 341 348 351 349 344
341 346 349 350 350 350 351 351 352 351 352 352 353 352 353 353 353 351 353 352 351 351 352 352 351 351 351 349 345 342 340 337 341 339 343 342 341 341 342 343 348 349 345
345 347 350 351 351 352 352 352 351 353 352 352 353 352 353 352 352 352 352 350 352 351 351 352 353 353 353 351 342 341 342 343 344 344 343 342 341 342 348 345 348 349 348
348 350 348 349 351 351 352 352 352 353 353 352 353 352 352 351 352 352 350 345 347 347 347 352 352 349 345 342 344 343 342 344 342 343 340 341 340 340 343 343 347 347 345
350 349 349 351 350 352 353 352 352 353 353 353 354 352 352 352 353 352 350 345 351 351 351 352 351 345 343 344 342 344 348 340 343 343 340 342 340 339 341 342 344 345 348
350 349 349 349 351 351 349 350 349 351 352 352 351 353 352 350 352 350 347 342 347 351 350 351 347 346 345 343 338 340 345 343 342 345 343 343 342 338 342 346 345 344 345
348 348 349 348 348 351 348 349 349 349 353 353 351 347 346 345 346 347 345 343 342 349 349 349 346 349 348 348 345 344 338 340 339 343 341 337 340 342 337 345 347 347 346
347 346 348 348 346 351 348 348 347 348 351 349 350 343 346 347 345 342 341 341 343 345 346 345 345 346 347 348 348 338 339 338 338 337 337 336 335 343 341 335 343 346 347
347 345 345 348 346 348 346 348 346 346 348 346 348 344 345 346 342 341 343 346 347 346 346 345 345 348 349 348 344 339 339 340 341 340 340 345 346 344 344 338 338 343 343
346 344 344 346 344 345 344 344 343 344 340 342 347 342 338 341 342 346 349 349 350 350 349 347 346 348 349 349 347 338 341 342 342 341 338 339 343 343 344 344 343 349 348
347 343 339 343 343 342 341 342 343 341 341 344 346 343 337 341 347 349 349 349 350 350 351 350 349 348 349 350 344 341 344 341 342 341 342 344 340 339 341 340 339 347 346
347 345 340 341 343 342 338 338 342 342 340 340 336 334 335 344 348 348 348 349 349 349 350 350 349 348 347 347 343 345 344 342 341 342 344 344 345 342 338 341 342 341 341
348 347 344 343 344 342 342 339 342 340 339 336 334 334 341 346 347 348 349 349 349 348 346 348 349 348 348 346 345 345 344 343 343 344 344 344 344 344 344 341 342 342 342
346 347 346 346 346 344 344 344 345 343 342 342 342 338 339 344 346 348 349 349 348 348 349 350 350 349 349 347 347 346 344 342 342 342 342 342 344 345 344 345 343 344 343
341 344 346 346 347 345 346 346 347 348 344 345 347 346 344 342 340 340 347 349 348 349 349 350 350 349 348 347 346 345 344 342 339 341 342 344 346 346 346 347 346 347 347
340 340 344 345 346 346 345 346 346 347 347 346 345 347 347 345 344 344 344 346 348 349 349 349 349 348 348 345 343 340 342 341 340 341 343 346 346 346 345 343 342 341 344
338 339 341 343 344 346 346 346 346 346 346 346 345 347 347 347 346 345 344 344 346 348 350 349 349 347 345 343 343 340 339 342 337 339 342 346 345 343 342 340 338 338 341
338 339 341 341 342 344 346 346 345 345 345 345 345 346 345 345 346 345 344 345 344 344 347 349 349 348 346 343 342 341 336 335 342 342 339 343 345 343 341 339 339 342 345
338 338 340 342 342 343 345 346 346 345 345 345 344 344 345 344 343 343 343 343 344 344 344 347 348 348 347 345 343 340 339 338 337 337 341 338 340 343 341 340 340 341 343
338 338 339 341 342 343 345 346 346 345 345 344 344 343 343 344 344 343 343 344 344 345 345 345 344 346 347 346 343 339 339 338 338 338 337 336 337 339 341 339 339 338 340
Wind_Speed
21 22 20 18 18 18 19 20 22 24 23 24 24 21 20 18 17 16 14 12 9 8 9 9 6 6 5 5 2 3 4 2 2 3 5 7 7 9 11 10 12 14 16
29 24 22 20 18 18 19 21 21 22 24 24 24 22 19 16 15 15 14 11 9 8 7 7 6 4 4 5 5 5 5 5 5 4 5 5 8 9 10 9 11 12 14
31 27 23 21 20 19 19 19 20 19 19 19 19 19 17 16 15 15 13 12 10 9 8 8 8 7 5 4 5 6 6 7 10 9 7 8 8 11 10 8 10 13 12
30 27 25 21 21 19 18 18 17 17 17 17 17 16 16 15 15 14 13 12 11 10 10 10 9 8 7 7 7 7 7 6 8 9 9 11 11 10 12 11 12 13 11
28 25 25 22 20 17 17 17 16 15 15 15 15 15 14 14 14 14 12 12 11 11 12 12 12 10 10 9 10 8 8 8 8 9 9 10 12 12 12 10 13 16 12
25 22 22 22 19 18 18 18 16 16 15 15 14 14 14 13 13 13 11 12 12 12 13 12 11 11 11 11 12 11 10 10 9 9 9 10 11 14 11 11 13 15 14
25 23 21 22 21 19 19 18 16 14 15 14 14 15 14 14 13 13 13 12 13 13 13 13 12 11 11 12 12 10 10 11 11 12 10 12 12 13 10 13 12 12 12
27 24 22 21 21 20 18 17 16 16 16 15 15 15 14 14 13 13 12 12 12 12 12 11 11 11 11 11 10 10 9 10 9 12 11 11 14 14 13 11 12 11 13
25 24 24 22 20 19 19 17 16 16 16 16 16 16 15 15 14 13 13 12 12 11 10 9 9 9 9 11 11 10 9 10 10 12 13 12 14 14 14 11 12 13 13
24 22 23 22 22 20 19 18 17 17 16 15 15 15 14 13 12 12 12 11 11 11 10 10 10 10 10 9 10 10 9 10 11 13 15 14 15 14 17 15 14 13 14
22 22 22 23 22 22 21 19 17 17 16 15 15 15 15 14 13 13 13 13 11 11 11 11 11 10 9 7 7 8 9 9 12 13 14 14 14 16 17 17 16 15 13
23 27 25 24 24 22 21 20 19 17 16 17 18 17 17 16 16 14 13 12 11 11 12 12 12 10 10 9 6 5 11 12 12 13 14 14 14 16 17 16 17 16 15
26 26 25 25 25 24 24 23 21 21 20 19 18 18 18 17 16 15 14 13 12 11 13 12 14 14 13 13 12 12 9 12 17 16 16 13 13 14 16 15 15 16 16
25 27 28 27 27 25 24 23 23 23 21 22 21 20 19 18 17 17 15 13 13 13 14 15 16 16 15 14 13 8 7 11 12 18 17 15 13 15 16 17 16 15 15
26 28 30 30 29 27 26 25 25 24 24 23 22 21 21 19 18 16 16 15 15 15 16 15 17 18 18 16 13 8 8 7 7 11 11 9 8 13 16 16 16 16 17
26 28 30 31 30 30 29 27 27 26 25 24 23 23 22 21 19 17 17 17 18 17 17 17 18 19 20 18 17 13 12 10 9 8 7 8 9 10 14 16 16 16 16
32 29 32 32 31 33 32 30 28 27 26 26 25 24 24 23 22 20 19 19 18 17 17 19 19 18 18 17 16 13 11 9 7 7 6 8 10 13 13 15 16 18 18
30 31 32 31 33 34 34 31 29 29 28 28 28 28 28 26 24 23 21 21 18 16 14 16 15 16 16 17 16 10 9 11 11 10 9 9 9 11 14 15 18 19 20
35 35 35 34 35 36 35 33 31 30 30 29 28 29 30 29 28 26 24 22 22 19 18 18 18 19 19 18 17 13 9 9 9 10 12 11 11 11 13 14 15 16 19
34 37 37 38 38 37 36 35 32 31 31 32 31 31 32 33 31 29 27 25 23 23 20 22 23 22 23 20 16 13 11 10 11 13 15 14 12 10 10 12 14 14 17
33 34 38 39 39 37 38 36 35 37 37 36 35 35 34 34 33 33 32 30 26 25 24 22 24 24 25 18 13 12 13 13 12 12 13 12 10 9 11 10 13 15 17
35 38 40 41 42 44 41 41 31 32 36 41 40 40 41 38 35 34 34 34 31 28 25 23 25 25 24 19 8 3 1 4 11 11 9 9 8 7 8 8 10 13 15
34 39 42 46 46 47 46 35 31 26 30 34 39 40 42 43 40 38 37 35 36 32 30 30 30 30 26 23 17 6 2 4 1 6 8 10 9 8 7 7 9 10 9
36 37 40 45 48 48 44 37 37 35 31 35 36 41 39 41 41 41 39 39 38 37 35 33 31 32 29 23 21 19 7 4 3 1 6 9 11 9 7 6 6 3 2
27 34 38 42 46 48 43 45 40 35 36 31 28 32 40 38 39 39 38 38 38 41 39 38 35 34 34 25 21 12 15 9 6 2 2 4 11 11 9 6 3 2 4
25 30 34 39 44 43 42 44 39 39 35 33 33 33 33 37 40 39 35 34 37 39 42 41 40 38 36 29 24 15 13 6 8 5 2 3 4 7 11 8 6 5 6
Wind_Direction
160 151 151 148 143 138 136 130 133 135 141 154 160 154 149 151 157 155 157 155 156 140 129 136 141 140 148 168 207 193 245 223 149 124 84 102 107 102 104 113 115 118 119
156 154 155 153 148 144 140 137 136 139 145 148 149 152 155 158 160 159 162 162 168 163 160 156 152 147 167 162 159 193 207 221 224 217 165 136 131 128 124 122 122 121 130
156 156 158 158 151 151 146 143 140 143 144 147 152 154 153 158 165 164 164 167 172 170 168 163 164 173 177 172 158 166 196 215 221 216 197 170 153 142 138 137 136 134 135
156 156 160 162 154 152 148 148 149 152 153 149 150 151 155 163 170 167 168 171 177 175 166 163 162 170 165 169 164 165 174 189 192 196 188 177 172 156 149 155 155 149 143
156 159 161 162 157 152 150 153 153 158 158 158 158 157 160 167 169 164 165 169 173 169 165 167 166 167 168 164 160 163 172 161 177 192 185 181 170 172 162 166 165 159 155
157 159 161 163 160 160 161 162 161 163 162 164 161 158 164 169 162 157 160 165 165 159 164 171 170 171 173 171 168 166 171 179 183 186 198 188 186 173 173 168 167 165 167
162 161 164 169 170 169 167 165 168 168 169 168 165 165 173 173 165 159 162 158 163 165 168 173 173 176 180 179 180 182 175 188 198 206 207 193 193 187 181 175 178 173 170
166 166 166 174 178 176 174 176 176 172 174 172 171 173 176 175 172 171 172 167 166 170 174 180 184 187 192 194 195 192 187 182 187 189 186 196 195 195 195 189 193 188 178
168 169 169 175 178 179 182 185 183 183 180 177 179 178 178 185 177 180 184 179 177 181 190 196 203 208 206 204 211 220 220 224 215 203 198 199 201 196 190 199 198 199 190
172 174 175 178 181 181 185 186 187 188 185 183 184 186 185 190 185 194 194 195 190 194 204 210 221 222 218 220 223 227 225 228 221 198 194 198 198 195 191 195 197 204 198
178 179 182 183 182 186 186 187 192 190 187 186 189 195 194 195 195 200 208 207 204 212 217 225 230 232 238 236 230 225 220 211 209 195 194 188 190 195 193 196 196 199 206
183 187 189 192 189 191 193 188 198 190 196 195 198 200 205 202 205 209 216 221 219 225 227 229 241 252 249 229 217 248 224 219 207 198 194 196 196 197 197 196 199 203 210
190 191 195 198 195 196 197 197 200 198 199 203 205 210 210 211 214 216 219 218 225 229 236 238 244 247 255 258 255 274 253 217 203 202 201 200 208 202 202 205 207 211 210
195 198 197 201 200 202 204 204 203 202 206 206 207 209 211 217 219 217 218 217 224 233 244 245 251 255 256 262 274 269 238 226 233 233 228 231 229 218 209 211 212 215 219
198 204 204 202 204 206 208 210 210 211 213 212 214 216 216 215 219 221 227 233 237 239 245 249 259 265 260 250 250 253 233 242 255 232 217 215 216 214 212 214 215 220 225
208 208 207 207 207 208 212 214 215 217 217 219 218 216 217 219 222 229 240 249 255 256 252 256 259 266 265 257 240 252 260 259 241 215 218 226 224 205 206 215 220 225 233
213 209 210 211 212 212 214 216 217 218 218 220 221 219 219 220 224 233 244 252 255 262 258 258 259 264 254 252 249 257 246 234 234 234 258 258 236 231 226 226 226 226 236
213 213 212 214 215 217 214 217 219 220 222 225 224 220 219 221 228 235 243 249 251 258 257 258 246 248 239 245 249 263 251 245 249 257 267 271 270 246 238 237 237 236 240
215 216 214 214 216 216 217 217 219 219 221 222 224 223 221 225 230 235 237 241 247 253 248 241 249 244 242 245 252 257 259 259 265 268 276 275 274 264 248 249 250 245 244
217 218 220 217 218 218 217 221 222 224 224 225 226 225 228 230 233 235 238 239 245 243 242 243 244 236 237 244 249 250 258 269 268 272 284 290 284 265 254 257 245 249 247
218 214 218 216 217 219 216 220 224 225 225 228 231 233 231 232 234 237 239 239 241 238 241 243 231 230 232 233 228 239 249 263 266 264 276 277 279 252 251 257 249 260 260
217 217 216 219 217 219 218 219 218 225 230 230 233 235 235 234 235 238 238 239 238 237 238 235 224 221 221 221 190 155 301 269 249 250 270 269 262 251 254 263 275 279 272
211 213 214 219 221 220 219 217 220 225 229 234 236 239 234 234 236 238 241 241 240 239 240 236 225 221 211 211 206 168 132 225 312 240 245 244 253 251 261 273 280 281 282
218 218 217 218 221 223 217 213 213 215 218 225 226 232 234 232 234 237 242 245 245 242 242 240 235 224 219 209 209 220 219 185 183 258 235 226 234 237 244 271 289 299 183
222 223 221 222 224 222 217 217 216 217 221 223 226 234 236 234 234 236 239 240 246 246 245 239 236 228 224 221 206 190 216 224 210 166 225 221 222 225 224 225 220 202 174
231 227 224 223 224 223 220 220 217 219 222 225 228 241 246 246 241 239 245 253 254 254 249 241 237 238 231 228 212 203 183 186 211 189 162 215 211 217 213 215 198 176 153